GW6043 Weather Reports


time (UTC)temp
C
wind
direction
speed
KPH
gust
KPH
rain 1hr
cm
rain 24hr
cm
rain mn
cm
humidity
%
barometer
mb
20260507081455 11 306 3.2 4.8 0.00 0.00 0.00 59 1012.6
20260507080952 11 311 3.2 4.8 0.00 0.00 0.00 59 1012.8
20260507080448 11 303 4.8 4.8 0.00 0.00 0.00 60 1012.7
20260507075943 11 310 1.6 1.6 0.00 0.00 0.00 59 1012.9
20260507075440 11 307 1.6 1.6 0.00 0.00 0.00 59 1012.7
20260507074937 11 315 3.2 3.2 0.00 0.00 0.00 59 1012.8
20260507074433 11 326 1.6 1.6 0.00 0.00 0.00 59 1012.8
20260507073932 11 311 3.2 3.2 0.00 0.00 0.00 59 1012.7
20260507073428 11 322 3.2 4.8 0.00 0.00 0.00 58 1012.7
20260507072924 11 318 1.6 1.6 0.00 0.00 0.00 58 1013.2
20260507072422 11 320 3.2 3.2 0.00 0.00 0.00 59 1012.7
20260507071920 11 330 0.0 1.6 0.00 0.00 0.00 59 1012.8
20260507071416 11 320 3.2 3.2 0.00 0.00 0.00 58 1013.2
20260507070913 11 312 3.2 3.2 0.00 0.00 0.00 58 1012.9
20260507070410 11 309 0.0 1.6 0.00 0.00 0.00 61 1012.9
20260507065907 11 324 0.0 0.0 0.00 0.00 0.00 61 1013.0
20260507065403 11 323 0.0 0.0 0.00 0.00 0.00 63 1013.0
20260507064900 11 312 1.6 1.6 0.00 0.00 0.00 63 1012.8
20260507064359 11 319 0.0 0.0 0.00 0.00 0.00 65 1013.1
20260507063856 11 325 0.0 0.0 0.00 0.00 0.00 68 1012.9
20260507063353 11 320 0.0 0.0 0.00 0.00 0.00 67 1012.6
20260507062850 11 315 1.6 1.6 0.00 0.00 0.00 70 1012.8
20260507062347 12 324 0.0 0.0 0.00 0.00 0.00 70 1013.0
20260507061845 12 321 0.0 1.6 0.00 0.00 0.00 71 1013.0
20260507061342 12 326 4.8 8.0 0.00 0.00 0.00 73 1012.8
20260507060841 12 332 0.0 0.0 0.00 0.00 0.00 74 1012.8
20260507060337 12 333 4.8 4.8 0.00 0.00 0.00 75 1012.8
20260507055834 12 323 0.0 0.0 0.00 0.00 0.00 75 1012.8
20260507055329 12 289 4.8 4.8 0.00 0.00 0.00 76 1012.6
20260507054826 12 310 0.0 0.0 0.00 0.00 0.00 76 1012.8
20260507054322 12 300 3.2 3.2 0.00 0.00 0.00 76 1012.8
20260507053819 12 307 9.7 11.3 0.00 0.00 0.00 77 1012.7
20260507053317 12 322 3.2 3.2 0.00 0.00 0.00 77 1012.5
20260507052816 12 297 6.4 8.0 0.00 0.00 0.00 78 1012.5
20260507052312 12 326 0.0 1.6 0.00 0.00 0.00 78 1012.6
20260507051810 12 316 1.6 1.6 0.00 0.00 0.00 77 1012.6
20260507051307 12 331 3.2 3.2 0.00 0.00 0.00 77 1012.8
20260507050804 12 337 0.0 1.6 0.00 0.00 0.00 77 1012.9
20260507050300 12 306 1.6 1.6 0.00 0.00 0.00 76 1012.7
20260507045757 12 306 3.2 3.2 0.00 0.00 0.00 77 1012.5
20260507045253 12 316 4.8 8.0 0.00 0.00 0.00 76 1012.4
20260507044751 12 314 3.2 3.2 0.00 0.00 0.00 76 1012.8
20260507044247 12 325 3.2 3.2 0.00 0.00 0.00 75 1012.5
20260507043743 12 301 1.6 3.2 0.00 0.00 0.00 75 1012.9
20260507043240 12 317 3.2 4.8 0.00 0.00 0.00 75 1013.1
20260507042736 12 326 8.0 11.3 0.00 0.00 0.00 76 1012.9
20260507042231 12 304 4.8 4.8 0.00 0.00 0.00 75 1012.7
20260507041730 13 294 6.4 8.0 0.00 0.00 0.00 74 1012.8
20260507041226 13 288 8.0 9.7 0.00 0.00 0.00 74 1012.7
20260507040723 13 315 4.8 8.0 0.00 0.00 0.00 75 1012.7
20260507040219 13 305 4.8 8.0 0.00 0.00 0.00 74 1012.5
20260507035715 13 319 1.6 1.6 0.00 0.00 0.00 75 1012.7
20260507035210 13 306 6.4 8.0 0.00 0.00 0.00 74 1012.8
20260507034708 13 307 3.2 3.2 0.00 0.00 0.00 74 1012.6
20260507034205 13 310 8.0 9.7 0.00 0.00 0.00 75 1012.6
20260507033704 13 291 4.8 4.8 0.00 0.00 0.00 76 1012.7
20260507033201 13 310 4.8 4.8 0.00 0.00 0.00 76 1012.5
20260507032658 13 319 4.8 9.7 0.00 0.00 0.00 77 1012.5
20260507032153 13 327 0.0 1.6 0.00 0.00 0.00 78 1012.7
20260507031651 13 313 4.8 4.8 0.00 0.00 0.00 77 1012.1
20260507031147 13 349 1.6 3.2 0.00 0.00 0.00 77 1011.9
20260507030644 13 333 3.2 3.2 0.00 0.00 0.00 77 1012.2
20260507030142 13 4 1.6 1.6 0.00 0.00 0.00 76 1012.2
20260507025639 13 317 4.8 8.0 0.00 0.00 0.00 76 1012.5
20260507025136 13 306 4.8 4.8 0.00 0.00 0.00 76 1012.2
20260507024634 13 289 4.8 8.0 0.00 0.00 0.00 76 1012.0
20260507024131 13 307 1.6 3.2 0.00 0.00 0.00 76 1012.2
20260507023626 13 294 1.6 3.2 0.00 0.00 0.00 77 1012.2
20260507023124 13 334 1.6 3.2 0.00 0.00 0.00 78 1012.5
20260507022620 13 325 1.6 3.2 0.00 0.00 0.00 79 1012.2
20260507022116 13 52 3.2 4.8 0.00 0.00 0.00 79 1012.2
20260507021612 13 301 1.6 1.6 0.00 0.00 0.00 79 1012.0
20260507021108 14 260 1.6 1.6 0.00 0.00 0.00 79 1011.9
20260507020607 14 328 1.6 1.6 0.00 0.00 0.00 79 1012.0
20260507015601 14 318 1.6 1.6 0.00 0.00 0.00 78 1012.2
20260507015058 15 304 3.2 3.2 0.00 0.00 0.00 78 1012.0
20260507014555 15 308 3.2 4.8 0.00 0.00 0.00 77 1012.1
20260507014050 15 331 1.6 1.6 0.00 0.00 0.00 77 1012.3
20260507013547 15 328 1.6 3.2 0.00 0.00 0.00 78 1012.1
20260507013045 15 300 1.6 3.2 0.00 0.00 0.00 77 1012.3
20260507012542 15 275 3.2 3.2 0.00 0.00 0.00 78 1012.1
20260507012038 15 315 4.8 4.8 0.00 0.00 0.00 77 1012.3
20260507011536 15 330 1.6 1.6 0.00 0.00 0.00 77 1012.4
20260507011031 15 314 4.8 4.8 0.00 0.00 0.00 77 1012.0
20260507010526 15 301 3.2 3.2 0.00 0.00 0.00 77 1012.1
20260507010023 15 330 0.0 1.6 0.00 0.00 0.00 78 1011.9
20260507005520 15 310 6.4 9.7 0.00 0.00 0.00 77 1011.7
20260507005017 15 305 3.2 3.2 0.00 0.00 0.00 77 1011.8
20260507004514 15 304 4.8 4.8 0.00 0.00 0.00 77 1011.6
20260507004011 15 333 3.2 3.2 0.00 0.00 0.00 78 1011.7
20260507003506 15 304 1.6 3.2 0.00 0.00 0.00 78 1011.5
20260507003001 16 292 1.6 1.6 0.00 0.00 0.00 79 1011.5
20260507002458 16 312 3.2 4.8 0.00 0.00 0.00 78 1011.5
20260507001955 16 319 1.6 1.6 0.00 0.00 0.00 78 1011.4
20260507001451 16 344 4.8 4.8 0.00 0.00 0.00 78 1011.1
20260507000949 16 335 1.6 3.2 0.00 0.00 0.00 79 1010.9
20260507000444 16 324 1.6 3.2 0.00 0.00 0.00 79 1011.0
20260506235940 16 302 4.8 4.8 0.00 0.00 0.00 79 1010.7
20260506235438 16 303 4.8 4.8 0.00 0.00 0.00 79 1010.2
20260506234933 16 333 1.6 3.2 0.00 0.00 0.00 79 1010.3
20260506234431 16 297 4.8 4.8 0.00 0.00 0.00 79 1010.3
20260506233928 16 294 3.2 3.2 0.00 0.00 0.00 80 1010.1
20260506233425 17 283 3.2 4.8 0.00 0.00 0.00 79 1010.0
20260506232921 17 286 4.8 4.8 0.00 0.00 0.00 80 1010.0
20260506232418 17 288 3.2 3.2 0.00 0.00 0.00 80 1009.8
20260506231913 17 312 8.0 9.7 0.00 0.00 0.00 79 1009.7
20260506231411 17 310 3.2 3.2 0.00 0.00 0.00 79 1009.8
20260506230908 17 289 4.8 4.8 0.00 0.00 0.00 79 1009.8
20260506230405 17 324 3.2 3.2 0.00 0.00 0.00 79 1009.6
20260506225901 17 300 3.2 4.8 0.00 0.00 0.00 80 1009.7
20260506225359 17 279 8.0 12.9 0.00 0.00 0.00 80 1009.5
20260506224855 17 300 4.8 8.0 0.00 0.00 0.00 80 1009.7
20260506224353 18 280 11.3 12.9 0.00 0.00 0.00 81 1009.4
20260506223849 18 311 4.8 8.0 0.00 0.00 0.00 84 1009.6
20260506223344 18 311 3.2 3.2 0.00 0.00 0.00 86 1009.3
20260506222842 18 303 0.0 0.0 0.00 0.00 0.00 86 1009.2
20260506222337 18 310 1.6 3.2 0.00 0.00 0.00 86 1009.3
20260506221835 18 279 3.2 3.2 0.00 0.00 0.00 86 1009.4
20260506221332 18 294 1.6 3.2 0.00 0.00 0.00 86 1009.3
20260506220830 18 179 6.4 9.7 0.00 0.00 0.00 85 1009.0
20260506220325 18 272 4.8 8.0 0.00 0.00 0.00 85 1009.2
20260506215822 18 256 1.6 1.6 0.00 0.00 0.00 85 1008.7
20260506215318 18 227 3.2 3.2 0.00 0.00 0.00 85 1008.8
20260506214814 18 213 3.2 3.2 0.00 0.00 0.00 85 1008.7
20260506214311 18 220 4.8 4.8 0.00 0.00 0.00 85 1008.6
20260506213810 18 98 3.2 3.2 0.00 0.00 0.00 85 1008.6
20260506213306 19 235 4.8 4.8 0.00 0.00 0.00 84 1008.6
20260506212804 19 161 4.8 4.8 0.00 0.00 0.00 84 1008.3
20260506212259 19 242 4.8 4.8 0.00 0.00 0.00 84 1008.4
20260506211754 19 178 3.2 3.2 0.00 0.00 0.00 84 1008.4
20260506211251 19 253 3.2 3.2 0.00 0.00 0.00 84 1008.5
20260506210748 19 269 3.2 3.2 0.00 0.00 0.00 84 1008.3
20260506210245 18 285 3.2 3.2 0.00 0.00 0.00 84 1008.4
20260506205742 18 272 3.2 3.2 0.00 0.00 0.00 84 1008.2
20260506205237 18 218 4.8 4.8 0.00 0.00 0.00 84 1008.3
20260506204735 19 266 1.6 1.6 0.00 0.00 0.00 84 1008.3
20260506204232 19 215 4.8 4.8 0.00 0.00 0.00 84 1008.4
20260506203730 19 222 1.6 3.2 0.00 0.00 0.00 84 1008.1
20260506203227 19 279 3.2 3.2 0.00 0.00 0.00 84 1008.2
20260506202724 18 319 1.6 1.6 0.00 0.00 0.00 84 1008.2
20260506202220 18 202 1.6 3.2 0.00 0.00 0.00 84 1008.0
20260506201717 18 148 4.8 4.8 0.00 0.00 0.00 84 1008.3
20260506201214 18 203 4.8 4.8 0.00 0.00 0.00 85 1008.1
20260506200711 18 165 4.8 9.7 0.00 0.00 0.00 85 1008.2
20260506200208 18 300 1.6 1.6 0.00 0.00 0.00 85 1008.1
20260506195659 18 185 3.2 4.8 0.00 0.00 0.00 85 1008.3
20260506195155 19 162 4.8 4.8 0.00 0.00 0.00 85 1008.2
20260506194652 19 218 6.4 9.7 0.00 0.00 0.00 85 1008.3
20260506194148 18 312 4.8 4.8 0.00 0.00 0.00 86 1008.4
20260506193646 18 212 9.7 12.9 0.00 0.00 0.00 86 1008.5
20260506193143 18 238 8.0 9.7 0.00 0.00 0.00 87 1008.6
20260506192640 17 225 6.4 8.0 0.00 0.00 0.00 87 1008.5
20260506192136 17 200 6.4 8.0 0.00 0.00 0.00 87 1008.5
20260506191633 17 238 6.4 8.0 0.00 0.00 0.00 87 1008.4
20260506191129 17 186 8.0 11.3 0.00 0.00 0.00 87 1008.5
20260506190626 17 214 9.7 12.9 0.00 0.00 0.00 87 1008.5
20260506190123 17 268 3.2 3.2 0.00 0.00 0.00 88 1008.7
20260506185620 17 290 3.2 4.8 0.00 0.00 0.00 89 1008.7
20260506185116 17 240 1.6 3.2 0.00 0.00 0.00 90 1008.7
20260506184614 17 205 6.4 9.7 0.00 0.00 0.00 91 1008.7
20260506184111 17 265 1.6 1.6 0.00 0.00 0.00 91 1008.8
20260506183608 16 283 3.2 3.2 0.00 0.00 0.00 92 1008.7
20260506183103 16 213 3.2 3.2 0.00 0.00 0.00 93 1008.8
20260506182601 16 220 4.8 4.8 0.00 0.00 0.00 93 1008.8
20260506182058 16 193 3.2 3.2 0.00 0.00 0.00 94 1009.1
20260506181556 16 237 4.8 8.0 0.00 0.00 0.00 93 1009.1
20260506181053 16 316 0.0 0.0 0.00 0.00 0.00 94 1009.0
20260506180549 16 268 1.6 3.2 0.00 0.00 0.00 94 1008.8
20260506180046 16 299 1.6 1.6 0.00 0.00 0.00 94 1009.1
20260506175542 16 249 3.2 4.8 0.00 0.00 0.00 94 1009.0
20260506175039 16 197 4.8 4.8 0.00 0.00 0.00 94 1009.2
20260506174538 16 223 6.4 9.7 0.00 0.00 0.00 93 1009.1
20260506174033 16 268 3.2 3.2 0.00 0.00 0.00 93 1009.0
20260506173531 16 191 3.2 3.2 0.00 0.00 0.00 93 1009.3
20260506173028 16 242 4.8 4.8 0.00 0.00 0.00 93 1008.8
20260506172525 16 252 8.0 9.7 0.00 0.00 0.00 92 1008.8
20260506172021 16 234 3.2 3.2 0.00 0.00 0.00 92 1009.1
20260506171519 16 234 8.0 11.3 0.00 0.00 0.00 91 1009.2
20260506171017 16 235 6.4 8.0 0.00 0.00 0.00 90 1009.2
20260506170514 16 133 9.7 12.9 0.00 0.00 0.00 90 1009.1
20260506170011 16 267 11.3 16.1 0.00 0.00 0.00 90 1009.3
20260506165510 16 214 3.2 3.2 0.00 0.00 0.00 90 1009.1
20260506165005 16 214 4.8 4.8 0.00 0.00 0.00 90 1009.1
20260506164502 16 196 6.4 8.0 0.00 0.00 0.00 90 1009.1
20260506164000 16 218 8.0 14.5 0.00 0.00 0.00 91 1009.1
20260506163455 16 283 4.8 4.8 0.00 0.00 0.00 92 1009.0
20260506162950 16 242 4.8 8.0 0.00 0.00 0.00 92 1008.8
20260506162448 16 165 4.8 4.8 0.00 0.00 0.00 93 1009.0
20260506161945 16 237 4.8 8.0 0.00 0.00 0.00 93 1009.1
20260506161443 15 203 4.8 8.0 0.00 0.00 0.00 94 1009.1
20260506160935 15 261 6.4 9.7 0.00 0.00 0.00 94 1009.2
20260506160432 15 148 3.2 4.8 0.00 0.00 0.00 94 1009.1
20260506155929 15 187 4.8 8.0 0.00 0.00 0.00 94 1009.3
20260506155427 15 166 4.8 4.8 0.00 0.00 0.00 94 1009.2
20260506153553 15 196 4.8 8.0 0.00 0.00 0.00 94 1009.2
20260506153051 15 241 3.2 4.8 0.00 0.00 0.00 94 1009.2
20260506152548 15 280 1.6 3.2 0.00 0.00 0.00 94 1009.1
20260506152046 15 339 1.6 4.8 0.00 0.00 0.00 94 1009.0
20260506151544 15 154 4.8 11.3 0.00 0.00 0.00 94 1009.2
20260506151040 15 174 3.2 3.2 0.00 0.00 0.00 94 1009.2
20260506150537 15 263 3.2 4.8 0.00 0.00 0.00 94 1009.1
20260506150034 15 319 6.4 11.3 0.00 0.00 0.00 94 1009.1
20260506145530 15 292 3.2 8.0 0.00 0.00 0.00 94 1009.1
20260506145023 15 212 3.2 3.2 0.00 0.00 0.00 94 1009.2
20260506144519 15 156 4.8 8.0 0.00 0.00 0.00 94 1009.4
20260506144017 15 197 3.2 4.8 0.00 0.00 0.00 94 1009.6
20260506143514 15 158 3.2 3.2 0.00 0.00 0.00 94 1009.7
20260506143012 15 199 3.2 3.2 0.00 0.00 0.00 93 1009.8
20260506142509 15 231 4.8 4.8 0.00 0.00 0.00 93 1009.8
20260506142008 15 181 9.7 12.9 0.00 0.00 0.00 93 1009.7
20260506141505 15 222 3.2 3.2 0.00 0.00 0.00 93 1010.0
20260506141004 15 241 8.0 11.3 0.00 0.00 0.00 93 1009.6
20260506140500 15 209 3.2 3.2 0.00 0.00 0.00 93 1009.6
20260506135957 15 208 1.6 3.2 0.00 0.00 0.00 93 1009.5
20260506135455 15 200 3.2 4.8 0.00 0.00 0.00 93 1009.4
20260506134951 15 275 3.2 3.2 0.00 0.00 0.00 92 1009.4
20260506134447 15 236 4.8 4.8 0.00 0.00 0.00 92 1009.4
20260506133944 15 289 0.0 1.6 0.00 0.00 0.00 92 1009.5
20260506133441 15 198 4.8 8.0 0.00 0.00 0.00 92 1009.3
20260506132938 15 202 3.2 3.2 0.00 0.00 0.00 91 1009.4
20260506132434 15 269 3.2 3.2 0.00 0.00 0.00 91 1009.3
20260506131932 15 232 4.8 8.0 0.00 0.00 0.00 90 1009.4
20260506131428 15 176 4.8 8.0 0.00 0.00 0.00 90 1009.6
20260506130925 16 299 1.6 1.6 0.00 0.00 0.00 90 1009.6
20260506130422 16 280 4.8 8.0 0.00 0.00 0.00 90 1009.4
20260506125920 16 226 3.2 3.2 0.00 0.00 0.00 90 1009.5
20260506125418 16 189 4.8 4.8 0.00 0.00 0.00 90 1009.5
20260506124916 16 209 1.6 1.6 0.00 0.00 0.00 90 1009.5
20260506124413 16 162 3.2 3.2 0.00 0.00 0.00 90 1009.5
20260506123911 16 167 4.8 4.8 0.00 0.00 0.00 90 1009.5
20260506123408 15 251 4.8 9.7 0.00 0.00 0.00 90 1009.6
20260506122906 15 222 4.8 9.7 0.00 0.00 0.00 90 1009.7
20260506122403 15 259 1.6 3.2 0.00 0.00 0.00 89 1009.7
20260506121901 15 246 1.6 3.2 0.00 0.00 0.00 89 1009.8
20260506121357 15 171 3.2 3.2 0.00 0.00 0.00 89 1010.1
20260506120854 16 180 4.8 8.0 0.00 0.00 0.00 88 1009.9
20260506120352 16 194 4.8 4.8 0.00 0.00 0.00 87 1010.0
20260506115849 16 188 1.6 3.2 0.00 0.00 0.00 87 1009.9
20260506115347 16 216 9.7 12.9 0.00 0.00 0.00 86 1010.0
20260506114845 16 190 4.8 8.0 0.00 0.00 0.00 86 1010.0
20260506114342 16 236 1.6 1.6 0.00 0.00 0.00 84 1009.9
20260506113841 16 245 4.8 4.8 0.00 0.00 0.00 83 1009.9
20260506113338 17 224 3.2 4.8 0.00 0.00 0.00 81 1009.6
20260506112835 17 203 3.2 3.2 0.00 0.00 0.00 80 1009.6
20260506112332 17 176 3.2 3.2 0.00 0.00 0.00 80 1009.5
20260506111829 17 225 3.2 3.2 0.00 0.00 0.00 79 1009.4
20260506111328 17 224 11.3 17.7 0.00 0.00 0.00 77 1009.2
20260506110825 17 237 3.2 4.8 0.00 0.00 0.00 76 1009.5
20260506110322 18 222 3.2 4.8 0.00 0.00 0.00 76 1009.3
20260506105818 18 150 3.2 4.8 0.00 0.00 0.00 75 1009.1
20260506105315 18 180 1.6 3.2 0.00 0.00 0.00 73 1008.8
20260506104813 18 277 0.0 1.6 0.00 0.00 0.00 71 1008.8
20260506104310 19 177 3.2 4.8 0.00 0.00 0.00 69 1008.8
20260506103808 19 176 8.0 9.7 0.00 0.00 0.00 68 1008.8
20260506103305 19 202 6.4 8.0 0.00 0.00 0.00 68 1008.7
20260506102802 19 207 6.4 9.7 0.00 0.00 0.00 67 1008.6
20260506102300 19 212 1.6 3.2 0.00 0.00 0.00 67 1008.4
20260506101757 19 165 3.2 4.8 0.00 0.00 0.00 67 1008.5
20260506101253 19 163 4.8 8.0 0.00 0.00 0.00 66 1008.2
20260506100751 19 210 8.0 12.9 0.00 0.00 0.00 66 1008.6
20260506100249 19 265 3.2 3.2 0.00 0.00 0.00 66 1008.3
20260506095747 19 169 4.8 4.8 0.00 0.00 0.00 66 1008.2
20260506095244 19 248 9.7 11.3 0.00 0.00 0.00 65 1008.3
20260506094740 19 150 8.0 12.9 0.00 0.00 0.00 65 1008.1
20260506094239 19 140 4.8 4.8 0.00 0.00 0.00 65 1008.1
20260506093737 19 104 6.4 9.7 0.00 0.00 0.00 65 1008.4
20260506093234 19 161 4.8 4.8 0.00 0.00 0.00 65 1008.2
20260506092732 20 181 12.9 20.9 0.00 0.00 0.00 64 1008.2
20260506092230 20 247 6.4 9.7 0.00 0.00 0.00 64 1008.3
20260506091727 20 144 6.4 9.7 0.00 0.00 0.00 64 1008.3
20260506091224 20 205 4.8 11.3 0.00 0.00 0.00 64 1008.5
20260506090721 20 185 6.4 9.7 0.00 0.00 0.00 63 1008.5
20260506090218 20 220 6.4 8.0 0.00 0.00 0.00 63 1008.5
20260506085715 20 172 8.0 11.3 0.00 0.00 0.00 63 1008.6
20260506085212 20 204 4.8 4.8 0.00 0.00 0.00 63 1008.5
20260506084708 20 176 4.8 8.0 0.00 0.00 0.00 62 1008.5
20260506084204 20 191 6.4 11.3 0.00 0.00 0.00 62 1008.7
20260506083702 20 240 8.0 12.9 0.00 0.00 0.00 62 1008.7
20260506083159 20 126 8.0 14.5 0.00 0.00 0.00 62 1008.4
20260506082656 20 175 8.0 9.7 0.00 0.00 0.00 62 1008.7
20260506082156 20 202 4.8 4.8 0.00 0.00 0.00 61 1008.7